Time,TemperatureF,DewpointF,PressureIn,WindDirection,WindDirectionDegrees,WindSpeedMPH,WindSpeedGustMPH,Humidity,HourlyPrecipIn,Conditions,Clouds,dailyrainin,SoftwareType,DateUTC
2013-10-24 19:14:00,62.1,39.3,30.10,SE,133,0.0,-999.0,43,0.00,,,0.00,WeatherSnoop3.0,2013-10-25 00:14:00,
2013-10-24 19:17:00,62.1,41.6,30.10,SE,133,1.0,-999.0,47,0.00,,,0.00,WeatherSnoop3.0,2013-10-25 00:17:00,
2013-10-24 19:19:00,62.1,41.6,30.10,SE,133,1.0,-999.0,47,0.00,,,0.00,WeatherSnoop3.0,2013-10-25 00:19:00,
2013-10-24 19:22:00,61.2,39.1,30.10,SE,133,0.0,-999.0,44,0.00,,,0.00,WeatherSnoop3.0,2013-10-25 00:22:00,
2013-10-24 19:27:00,60.7,40.4,30.10,SE,133,0.0,-999.0,47,0.00,,,0.00,WeatherSnoop3.0,2013-10-25 00:27:00,
2013-10-24 20:03:00,58.4,-99.9,30.12,SE,133,0.0,-999.0,-999,0.00,,,0.00,WeatherSnoop3.0,2013-10-25 01:03:00,
2013-10-24 20:08:00,57.5,41.5,30.12,SE,133,0.0,-999.0,55,0.00,,,0.00,WeatherSnoop3.0,2013-10-25 01:08:00,
2013-10-24 20:10:00,57.3,40.8,30.12,SE,133,0.0,-999.0,54,0.00,,,0.00,WeatherSnoop3.0,2013-10-25 01:10:00,
2013-10-24 20:15:00,57.0,40.5,30.12,SE,133,0.0,-999.0,54,0.00,,,0.00,WeatherSnoop3.0,2013-10-25 01:15:00,
2013-10-24 20:20:00,56.7,41.2,30.13,SE,133,0.0,-999.0,56,0.00,,,0.00,WeatherSnoop3.0,2013-10-25 01:20:00,
2013-10-24 20:25:00,56.3,40.8,30.13,SE,133,0.0,-999.0,56,0.00,,,0.00,WeatherSnoop3.0,2013-10-25 01:25:00,
2013-10-24 20:30:00,55.9,40.9,30.13,SE,133,0.0,-999.0,57,0.00,,,0.00,WeatherSnoop3.0,2013-10-25 01:30:00,
2013-10-24 20:35:00,55.4,40.9,30.14,SE,133,0.0,-999.0,58,0.00,,,0.00,WeatherSnoop3.0,2013-10-25 01:35:00,
2013-10-24 20:40:00,55.1,40.6,30.14,SE,133,0.0,-999.0,58,0.00,,,0.00,WeatherSnoop3.0,2013-10-25 01:40:00,
2013-10-24 20:45:00,54.8,40.8,30.14,SE,133,0.0,-999.0,59,0.00,,,0.00,WeatherSnoop3.0,2013-10-25 01:45:00,
2013-10-24 20:50:00,54.5,40.5,30.14,SE,133,0.0,-999.0,59,0.00,,,0.00,WeatherSnoop3.0,2013-10-25 01:50:00,
2013-10-24 20:55:00,54.2,40.6,30.14,SE,133,0.0,-999.0,60,0.00,,,0.00,WeatherSnoop3.0,2013-10-25 01:55:00,
2013-10-24 21:00:00,53.9,41.2,30.14,SE,133,0.0,-999.0,62,0.00,,,0.00,WeatherSnoop3.0,2013-10-25 02:00:00,
2013-10-24 21:05:00,53.6,41.3,30.15,SE,133,0.0,-999.0,63,0.00,,,0.00,WeatherSnoop3.0,2013-10-25 02:05:00,
2013-10-24 21:10:00,53.5,41.2,30.15,SE,133,0.0,-999.0,63,0.00,,,0.00,WeatherSnoop3.0,2013-10-25 02:10:00,
2013-10-24 21:15:00,53.5,41.2,30.15,SE,133,0.0,-999.0,63,0.00,,,0.00,WeatherSnoop3.0,2013-10-25 02:15:00,
2013-10-24 21:20:00,53.3,41.0,30.15,SE,133,0.0,-999.0,63,0.00,,,0.00,WeatherSnoop3.0,2013-10-25 02:20:00,
2013-10-24 21:25:00,53.3,41.0,30.15,SE,133,0.0,-999.0,63,0.00,,,0.00,WeatherSnoop3.0,2013-10-25 02:25:00,
2013-10-24 21:30:00,53.3,41.4,30.15,SE,133,0.0,-999.0,64,0.00,,,0.00,WeatherSnoop3.0,2013-10-25 02:30:00,
2013-10-24 21:35:00,53.2,41.3,30.15,SE,133,0.0,-999.0,64,0.00,,,0.00,WeatherSnoop3.0,2013-10-25 02:35:00,
2013-10-24 21:40:00,53.2,41.3,30.15,SE,133,0.0,-999.0,64,0.00,,,0.00,WeatherSnoop3.0,2013-10-25 02:40:00,
2013-10-24 21:45:00,53.1,41.2,30.15,SE,133,0.0,-999.0,64,0.00,,,0.00,WeatherSnoop3.0,2013-10-25 02:45:00,
2013-10-24 21:50:00,52.9,41.5,30.15,SE,133,0.0,-999.0,65,0.00,,,0.00,WeatherSnoop3.0,2013-10-25 02:50:00,
2013-10-24 21:55:00,52.8,41.8,30.15,SE,133,0.0,-999.0,66,0.00,,,0.00,WeatherSnoop3.0,2013-10-25 02:55:00,
2013-10-24 22:00:00,52.6,41.6,30.15,SE,133,0.0,-999.0,66,0.00,,,0.00,WeatherSnoop3.0,2013-10-25 03:00:00,
2013-10-24 22:05:00,52.5,41.5,30.16,SE,133,0.0,-999.0,66,0.00,,,0.00,WeatherSnoop3.0,2013-10-25 03:05:00,
2013-10-24 22:10:00,52.3,41.3,30.16,SE,133,0.0,-999.0,66,0.00,,,0.00,WeatherSnoop3.0,2013-10-25 03:10:00,
2013-10-24 22:15:00,52.3,41.3,30.16,SE,133,0.0,-999.0,66,0.00,,,0.00,WeatherSnoop3.0,2013-10-25 03:15:00,
2013-10-24 22:20:00,52.3,41.3,30.15,SE,133,0.0,-999.0,66,0.00,,,0.00,WeatherSnoop3.0,2013-10-25 03:20:00,
2013-10-24 22:25:00,52.2,41.2,30.15,SE,133,0.0,-999.0,66,0.00,,,0.00,WeatherSnoop3.0,2013-10-25 03:25:00,
2013-10-24 22:30:00,51.9,41.3,30.15,SE,133,0.0,-999.0,67,0.00,,,0.00,WeatherSnoop3.0,2013-10-25 03:30:00,
2013-10-24 22:35:00,51.7,41.5,30.15,SE,133,0.0,-999.0,68,0.00,,,0.00,WeatherSnoop3.0,2013-10-25 03:35:00,
2013-10-24 22:40:00,51.6,41.4,30.15,SE,133,0.0,-999.0,68,0.00,,,0.00,WeatherSnoop3.0,2013-10-25 03:40:00,
2013-10-24 22:45:00,51.4,41.2,30.15,SE,133,0.0,-999.0,68,0.00,,,0.00,WeatherSnoop3.0,2013-10-25 03:45:00,
2013-10-24 22:50:00,51.3,41.1,30.16,SE,133,0.0,-999.0,68,0.00,,,0.00,WeatherSnoop3.0,2013-10-25 03:50:00,
2013-10-24 22:55:00,51.3,41.1,30.16,SE,133,0.0,-999.0,68,0.00,,,0.00,WeatherSnoop3.0,2013-10-25 03:55:00,
2013-10-24 23:00:00,51.3,41.1,30.16,SE,133,0.0,-999.0,68,0.00,,,0.00,WeatherSnoop3.0,2013-10-25 04:00:00,
2013-10-24 23:01:00,51.3,41.1,30.16,SE,133,0.0,-999.0,68,0.00,,,0.00,WeatherSnoop3.0,2013-10-25 04:01:00,
2013-10-24 23:03:00,51.3,41.1,30.16,SE,133,0.0,-999.0,68,0.00,,,0.00,WeatherSnoop3.0,2013-10-25 04:03:00,
2013-10-24 23:04:00,51.3,41.1,30.16,SE,133,0.0,-999.0,68,0.00,,,0.00,WeatherSnoop3.0,2013-10-25 04:04:00,
2013-10-24 23:05:00,51.3,41.1,30.16,SE,133,0.0,-999.0,68,0.00,,,0.00,WeatherSnoop3.0,2013-10-25 04:05:00,
2013-10-24 23:06:00,51.3,41.1,30.16,SE,133,0.0,-999.0,68,0.00,,,0.00,WeatherSnoop3.0,2013-10-25 04:06:00,
2013-10-24 23:07:00,51.3,41.1,30.16,SE,133,0.0,-999.0,68,0.00,,,0.00,WeatherSnoop3.0,2013-10-25 04:07:00,
2013-10-24 23:12:00,51.1,41.3,30.16,SE,133,0.0,-999.0,69,0.00,,,0.00,WeatherSnoop3.0,2013-10-25 04:12:00,
2013-10-24 23:17:00,51.1,41.3,30.15,SE,133,0.0,-999.0,69,0.00,,,0.00,WeatherSnoop3.0,2013-10-25 04:17:00,
2013-10-24 23:22:00,51.1,40.9,30.15,SE,133,0.0,-999.0,68,0.00,,,0.00,WeatherSnoop3.0,2013-10-25 04:22:00,
2013-10-24 23:27:00,51.1,41.3,30.15,SE,133,0.0,-999.0,69,0.00,,,0.00,WeatherSnoop3.0,2013-10-25 04:27:00,
2013-10-24 23:32:00,51.0,41.2,30.15,SE,133,0.0,-999.0,69,0.00,,,0.00,WeatherSnoop3.0,2013-10-25 04:32:00,
2013-10-24 23:37:00,51.0,41.2,30.15,SE,133,0.0,-999.0,69,0.00,,,0.00,WeatherSnoop3.0,2013-10-25 04:37:00,
2013-10-24 23:42:00,50.8,40.6,30.15,SE,133,0.0,-999.0,68,0.00,,,0.00,WeatherSnoop3.0,2013-10-25 04:42:00,
2013-10-24 23:48:00,50.8,41.0,30.15,SE,133,0.0,-999.0,69,0.00,,,0.00,WeatherSnoop3.0,2013-10-25 04:48:00,
2013-10-24 23:53:00,50.7,41.3,30.15,SE,133,0.0,-999.0,70,0.00,,,0.00,WeatherSnoop3.0,2013-10-25 04:53:00,
2013-10-24 23:57:00,50.5,41.1,30.15,SE,133,0.0,-999.0,70,0.00,,,0.00,WeatherSnoop3.0,2013-10-25 04:57:00,